Location: Henham
(51.9333°N, 0.2500°E)
Time: 19:19:39
(UTC+00:00)

Cosmos 2278 Rocket - Pass Details

Date: 23 October 2019
Orbit: 840 x 847 km, 71.0° (Epoch: 11 November)

Event Time Altitude Azimuth Distance (km) Brightness Sun altitude
Rises 19:54:43 0° 255° (WSW) 3,405 6.1 -29.0°
Reaches altitude 10° 19:57:38 10° 269° (W) 2,473 5.4 -29.4°
Maximum altitude 20:02:13 25° 323° (NW) 1,674 4.2 -30.1°
Drops below altitude 10° 20:06:49 10° 17° (NNE) 2,483 4.7 -30.7°
Enters shadow 20:07:27 - 21° (NNE) 2,670 4.8 -30.8°
